Flag for Germany Weather past 2 weeks in Waren (Müritz), Mecklenburg-Western Pomerania, Germany

Now
57 °F

Drizzle. Fog.


Feels Like: 57 °F
Forecast: 55 / 67 °F
Wind: 2 mph from Northwest

Location: Laage

Current Time: Sep 1, 2014 at 9:58:46 AM

Latest Report: Sep 1, 2014 at 9:20 AM


Visibility: 2 mi

Pressure: 30.01 "Hg

Humidity: 100%

Dew point: 57 °F

Location of Waren (Müritz)Location

Historic Weather in Waren (Müritz) — Graph

°F

Waren (Müritz) temperature yesterday

Maximum temperature yesterday: 66 °F (at 3:20 PM)
Minimum temperature yesterday: 55 °F (at 9:20 PM)
Average temperature yesterday: 60 °F

Past Weeks' High & Low Weather Summary

 TemperatureHumidityPressure
High72 °F (Aug 28, 3:20 PM)100% (Aug 25, 7:20 AM)30.04 "Hg (Aug 25, 7:20 AM)
Low39 °F (Aug 26, 4:20 AM)38% (Aug 28, 3:20 PM)29.47 "Hg (Aug 18, 2:20 PM)
Average57 °F78%29.86 "Hg
* Reported Aug 17 8:20 AM — Sep 1 8:20 AM, Waren (Müritz), Weather by CustomWeather, © 2014

Note: Actual official high and low records may vary slightly from our data, if they occured in-between our weather recording intervals... More about our weather records

Advertising

Waren (Müritz) weather history for previous 24 hours

 ConditionsComfort  
Time TempWeatherWind HumidityBarometerVisibility
8:20 AM
Sep 1
55 °FFog.3 mph100%30.01 "Hg0 mi
7:20 AM55 °FFog.1 mph100%29.98 "Hg0 mi
6:20 AM55 °FFog.3 mph94%29.98 "Hg0 mi
5:20 AM55 °FFog.3 mph94%29.95 "Hg0 mi
4:20 AM55 °FFog.3 mph94%29.95 "Hg0 mi
3:20 AM54 °FFog.3 mph100%29.95 "Hg0 mi
2:20 AM54 °FFog.3 mph100%29.95 "Hg0 mi
1:20 AM54 °FFog.3 mph100%29.95 "Hg4 mi
12:20 AM54 °FFog.3 mph100%29.95 "HgN/A
11:20 PM
Aug 31
55 °FFog.3 mph94%29.92 "HgN/A
10:20 PM55 °FFog.No wind94%29.92 "HgN/A
9:20 PM55 °FPassing clouds.2 mph94%29.92 "HgN/A
8:20 PM57 °FSprinkles. Broken clouds.5 mph88%29.89 "HgN/A
7:56 PM59 °FRain showers. Partly sunny.9 mph82%29.89 "Hg3 mi
7:20 PM63 °FSprinkles. Scattered clouds.3 mph83%29.89 "HgN/A
6:20 PM64 °FScattered showers. Scattered clouds.5 mph73%29.86 "HgN/A
5:20 PM66 °FScattered clouds.7 mph68%29.86 "HgN/A
4:20 PM66 °FScattered clouds.8 mph68%29.86 "HgN/A
3:20 PM66 °FScattered clouds.8 mph73%29.86 "HgN/A
2:20 PM64 °FBroken clouds.9 mph73%29.86 "HgN/A
1:20 PM64 °FBroken clouds.9 mph78%29.86 "HgN/A
12:20 PM63 °FBroken clouds.9 mph83%29.86 "HgN/A
11:20 AM63 °FPartly sunny.7 mph83%29.89 "HgN/A
10:20 AM59 °FPartly sunny.5 mph94%29.89 "HgN/A
9:20 AM59 °FPartly sunny.6 mph94%29.86 "Hg4 mi
Weather by CustomWeather, © 2014

See weather overviewHow to use our weather pages